Showing default

QIANFAN-24, 61557

Orbit data source: Space-Track

QIANFAN-24, 61557 is a Chinese payload satellite in LEO that was launched on Tue, 15 Oct 2024 UTC via a CHANG ZHENG 6A launch vehicle from the Taiyaun Space Center, China (TSC). Payload-class satellites include a variety of spacecraft equipped with specific instruments for various scientific and technological missions. These include communications satellites like Starlink; space stations such as the ISS; scientific satellites like the Hubble; Earth observation satellites from companies like Planet Labs, Umbra, and HawkEye 360; GPS; miniature CubeSats for education and research; and military/defense satellites.

Loading next visibility...
Identifier
61557, 2024-185F
Orbit
LEO
Country
Flag of CNCN / PRC
Related business
Manufacturer
GESIH/SECM
Mission
Partially operational Commercial Communications
Bus & Motor
QIANFAN, Unknown motor
Mass
267 kg wet, ~267 kg dry
Launch date (UTC)
2024-10-15 (2 years ago)
Launch vehicle
CHANG ZHENG 6A
Launch site
Taiyaun Space Center, China (TSC)
Object type
Payload
Rocket body
Debris
Shape & HBR
Box + 1 Pan, 5.0 m
Radar Cross Section
13.200 m², Large (>1 m²)

Expand to show TLE details & history
Last TLE update: 16 hours ago

TLE from 16 hours ago
0 QIANFAN-24
1 61557U 24185F   26235.56889481  .00000270  00000-0  11098-3 0  9992
2 61557  88.9791  47.5370 0009333 176.2322 183.8942 14.24133378106148
Epoch: 2026-08-23T13:39Z
TLE epoch observation values (Epoch: 2026-08-23T13:39:12.511Z)
Latitude
-0.00007°
Longitude
-129.1282°
Altitude
821.163 km
Speed
7.439 km/s
True Right ascension
03h 10m 08s
True Declination
0° 00' 00"
Sunlit
Object was in daylight at epoch
Visualization orbit readout
Latitude
Unknown
Longitude
Unknown
Altitude
Unknown
Speed
Unknown
Apparent Right ascension
Unknown
Apparent Declination
Unknown
Sunlit
N/A
Visualization observer readout
Local Sidereal Time
20:47:23
Azimuth
Unknown
Elevation
Unknown
Doppler factor
Unknown
Orbital elements
Apogee altitude
815.06 km
Perigee altitude
801.646 km
Semi-major axis
7,186.49 km
Eccentricity
0.00093
Inclination
88.9791°
RAAN
47.537°
Arg. of periapsis
176.2322°
True anomaly
183.88695°
Mean anomaly
183.8942°
Eccentric anomaly
183.89057°
Mean motion
3.56261 °/min
Orbital period
101.05 mins
BSTAR
0.00011098
Loading maneuver chart data...
Computing Atmospheric mass density...
Loading historical data...
Loading historical data...
Loading historical data...
Loading historical data...
Loading historical data...
Loading historical data...
Loading historical data...

Documentation

Showing up to 5 results
|